RH
87 83 66 60 56 48 60 58 56 59 46 43 32 31 28 33 29 34 30 30 29 29 26 28 26 23 15 22 39 62 60 73 38 24 20 20 24 36 43 68 49 52 60 66
89 80 73 72 61 64 67 41 43 51 79 69 38 34 33 36 34 35 34 34 31 31 36 39 26 24 19 18 23 80 85 67 56 38 29 24 29 28 33 55 68 65 72 76
81 73 70 58 63 53 79 53 69 47 41 39 46 46 39 40 46 45 43 41 44 44 41 32 39 35 24 24 31 58 67 67 69 51 49 60 67 32 39 53 70 56 54 37
90 81 57 58 56 52 81 66 63 52 63 44 39 44 38 40 47 45 36 67 60 46 50 41 40 40 43 38 21 32 65 71 52 48 33 41 62 82 41 50 46 47 33 26
75 71 54 60 57 54 73 78 48 47 42 44 42 46 36 31 36 35 36 54 38 34 41 36 52 52 50 48 37 58 75 72 57 70 54 45 54 56 30 26 23 25 26 28
52 60 60 53 51 87 66 83 75 53 48 38 37 36 35 38 35 34 34 34 39 40 38 38 40 41 42 42 50 55 77 78 76 69 58 51 66 44 31 22 24 26 43 46
66 60 60 62 66 80 71 76 63 53 49 31 33 33 33 34 34 41 35 36 40 35 41 44 43 41 41 43 42 40 88 79 86 88 55 70 34 22 20 24 26 35 39 57
80 59 62 70 66 64 84 71 62 54 56 30 32 36 34 34 35 41 36 36 39 46 49 58 48 39 36 42 38 37 41 88 90 95 44 36 24 34 33 39 68 49 50 46
76 66 64 65 74 72 88 74 73 61 68 40 34 36 35 37 34 34 36 41 50 57 76 70 73 63 48 43 30 28 45 75 92 82 60 52 53 36 36 30 56 58 56 59
79 65 64 66 60 66 88 89 91 73 82 47 49 43 47 43 47 44 38 47 47 55 69 81 83 82 48 49 39 61 69 74 82 88 47 44 49 37 36 44 89 68 73 80
96 80 65 57 51 58 87 98 90 87 79 54 58 54 50 47 48 55 51 52 67 59 71 69 85 92 60 49 34 46 48 49 55 51 54 61 65 47 65 91 84 83 84 90
92 64 58 65 71 81 78 99 98 97 93 75 78 75 71 62 54 52 50 53 56 61 71 61 81 91 66 62 60 44 73 87 95 89 98 84 84 87 100 97 97 98 95 98
68 63 80 80 79 89 79 99 98 98 95 78 66 57 62 71 73 67 62 50 54 78 95 92 72 90 67 76 90 74 61 52 78 83 96 95 96 96 100 100 100 100 100 100
70 90 76 66 61 61 65 97 94 93 87 70 57 61 63 66 68 70 70 70 66 61 58 68 76 77 58 70 69 76 70 59 71 97 86 84 92 96 98 100 100 99 99 99
88 86 67 58 58 73 78 91 98 98 81 81 72 65 55 61 68 71 70 70 70 61 69 74 79 55 79 60 60 78 74 96 90 95 90 93 98 97 96 98 100 99 99 100
89 77 63 68 60 71 92 98 81 92 96 98 71 69 68 63 70 67 65 70 78 86 77 73 63 69 57 63 87 84 93 94 95 98 98 98 97 96 97 98 100 97 98 100
88 74 70 60 57 79 98 96 100 88 100 98 88 54 65 68 69 71 67 78 83 81 75 56 58 54 54 67 88 93 98 100 97 98 98 98 98 99 97 91 90 86 87 89
72 62 50 59 86 96 97 87 86 100 98 98 89 63 64 75 66 65 69 82 85 84 66 60 59 54 51 79 93 96 99 96 97 97 97 99 96 88 80 79 76 76 81 86
55 54 75 90 97 99 98 84 96 99 98 93 73 69 72 89 71 72 79 73 74 52 66 59 55 59 72 87 89 96 100 98 98 96 96 82 78 74 73 72 72 75 82 89
65 88 98 98 98 100 97 98 98 97 97 90 68 51 64 71 75 80 68 70 62 71 63 58 68 71 88 90 93 91 95 97 96 94 80 80 78 80 81 81 81 84 90 96
92 98 98 99 98 97 98 88 88 74 77 62 60 56 60 70 79 73 63 68 62 63 56 64 71 82 83 87 86 90 90 86 91 96 97 94 88 86 88 93 96 96 99 99
97 98 98 98 97 87 74 68 58 58 47 48 57 57 53 64 66 70 66 62 64 74 72 76 74 81 86 85 88 90 93 94 96 95 98 99 99 98 99 100 100 100 100 99
98 96 98 90 82 90 82 74 66 64 54 75 81 80 63 68 64 78 79 91 80 82 91 83 83 76 79 82 85 90 94 98 100 100 100 100 100 100 100 100 100 98 90 91
99 89 93 84 86 76 66 62 67 92 91 82 82 88 87 86 96 98 100 95 97 87 86 88 74 79 86 91 89 93 100 100 100 100 100 100 99 95 93 90 90 89 87 87
93 64 77 87 89 100 99 97 92 97 96 97 97 96 96 92 100 96 94 96 93 80 92 86 90 98 100 100 100 100 100 100 100 100 100 100 95 94 92 91 90 80 53 41
86 91 90 95 85 86 97 88 99 97 99 99 98 100 98 95 82 83 80 72 76 91 87 95 98 100 100 100 100 100 100 100 100 100 99 96 96 99 82 57 46 45 44 43
94 94 100 100 99 94 100 94 98 99 98 100 93 94 95 75 75 74 69 88 92 90 95 98 100 100 100 100 100 100 100 100 100 100 100 100 69 53 70 89 60 78 62 63
Wind_Speed
8 6 6 10 7 5 6 3 1 2 5 1 2 3 2 0 2 1 2 4 5 6 9 12 14 18 20 8 11 13 10 8 14 21 17 16 9 13 13 6 7 5 5 1
10 7 7 8 6 6 3 1 3 2 3 2 3 4 4 0 2 1 1 3 3 8 10 8 9 13 16 22 12 2 6 6 10 17 14 14 12 17 10 6 2 11 6 1
8 6 8 8 7 5 6 2 2 3 2 3 6 5 3 6 2 3 2 3 4 6 8 10 9 15 12 11 12 3 1 5 14 15 6 3 9 20 11 13 5 7 9 11
8 6 7 8 7 6 6 1 1 2 3 4 5 7 5 4 3 5 4 1 4 3 5 14 12 13 12 18 19 14 5 9 14 20 25 7 1 15 16 16 11 7 11 13
11 8 9 9 7 7 2 2 2 3 7 7 4 2 4 2 3 2 3 3 7 10 12 12 16 14 15 10 12 5 4 9 11 19 22 12 8 14 12 8 9 10 10 10
9 11 10 9 10 8 1 1 1 4 7 7 5 4 3 3 3 4 7 6 10 13 13 14 23 25 26 20 17 16 6 5 6 11 18 8 4 17 17 8 5 6 7 13
12 11 11 10 10 8 3 3 3 2 4 5 4 3 5 6 6 7 9 9 11 15 18 26 27 29 29 26 21 20 9 10 3 12 15 11 7 4 0 3 1 8 9 12
14 12 12 10 8 8 4 3 1 1 2 2 5 7 8 7 8 8 9 10 10 16 21 12 11 12 16 18 19 18 13 7 4 6 10 7 12 6 3 5 6 11 9 11
15 13 12 10 8 9 5 3 2 1 4 4 1 5 4 6 4 4 4 5 12 9 3 5 8 6 11 3 8 16 11 12 4 9 3 5 9 8 4 7 4 11 13 12
17 15 13 11 9 9 6 2 5 1 2 2 4 1 4 2 3 5 5 9 8 3 4 7 6 5 13 6 11 9 8 8 12 7 3 8 13 9 8 7 5 13 12 13
17 14 12 12 11 9 8 3 6 2 3 4 4 5 5 4 4 4 9 7 4 5 4 4 4 4 3 4 3 7 6 4 4 5 3 3 23 5 6 7 5 10 11 10
16 14 13 12 11 10 10 3 6 6 5 5 5 7 10 10 10 10 6 6 5 3 4 5 4 5 5 8 2 4 2 4 3 6 4 12 16 12 10 10 10 11 9 10
15 15 14 12 12 11 11 4 8 5 5 10 9 6 4 9 10 11 8 6 1 4 4 6 4 5 7 6 4 4 3 14 4 3 7 10 13 11 11 11 12 11 11 11
16 17 14 12 13 12 11 11 8 6 4 4 1 5 5 6 8 11 16 16 13 13 12 8 4 5 8 5 7 4 6 8 8 4 5 5 12 11 9 11 13 14 14 12
15 13 11 12 14 13 13 14 13 11 8 5 7 6 10 6 6 7 10 12 11 11 5 3 4 6 6 5 4 5 7 4 4 3 7 6 8 8 7 11 12 12 13 13
16 13 13 12 13 14 11 6 16 20 15 4 3 3 8 10 8 10 11 9 7 4 4 5 6 10 6 4 2 5 8 7 7 3 8 12 10 11 9 11 12 11 13 12
16 13 12 12 15 16 15 3 2 2 21 4 4 5 6 11 9 9 8 7 6 8 5 7 10 12 4 3 2 6 9 8 4 6 6 8 7 6 8 9 11 12 12 11
14 12 12 14 13 16 19 25 18 15 15 6 3 3 3 8 9 7 6 6 8 7 7 5 6 9 4 1 5 4 5 6 8 8 7 10 8 7 7 6 6 8 9 9
11 13 11 13 15 11 13 16 14 18 10 4 5 3 2 5 6 4 7 6 4 5 4 4 4 2 2 4 6 5 4 2 3 5 7 6 5 5 5 5 6 6 7 7
14 15 9 6 9 13 10 6 8 6 7 5 4 9 2 6 7 5 3 6 3 3 5 3 3 0 8 5 5 4 4 3 2 1 1 2 2 3 4 5 6 6 7 8
18 9 4 10 15 7 6 4 6 7 4 7 8 12 5 7 4 4 6 2 2 3 4 4 4 3 5 6 5 4 4 5 4 3 3 3 3 3 4 6 7 8 8 9
14 10 18 14 4 3 3 4 3 5 4 6 9 9 12 5 5 4 4 3 3 5 6 3 2 4 9 8 5 4 4 4 5 5 5 6 6 5 6 7 7 8 9 9
20 6 5 5 5 5 5 7 4 4 6 6 7 4 7 4 6 3 2 3 5 5 3 1 3 9 7 7 6 5 5 5 5 6 7 7 8 8 8 9 9 8 9 8
4 6 6 5 5 5 4 3 3 4 4 10 13 7 5 4 4 2 4 2 3 3 3 3 4 10 9 6 5 5 6 7 8 9 9 9 10 10 10 10 9 8 7 6
6 5 4 6 1 2 3 3 4 4 6 9 5 3 5 3 3 3 3 3 3 1 3 3 12 12 8 6 6 8 9 9 10 10 11 12 11 11 10 9 8 6 5 4
2 2 2 2 4 4 5 6 4 3 3 5 3 2 3 4 2 3 3 3 1 3 4 11 12 10 9 9 10 10 11 11 11 11 11 10 10 8 7 6 5 4 3 3
2 2 1 2 3 4 4 6 5 3 3 2 3 3 1 2 2 2 1 2 3 9 11 10 11 11 11 12 13 13 12 12 11 10 8 8 7 6 5 3 2 2 0 1
Wind_Direction
212 193 158 162 178 143 132 173 177 287 114 160 204 158 67 5 82 223 276 294 290 292 308 289 279 272 276 330 332 317 342 300 261 237 230 235 259 225 231 248 266 260 282 39
200 197 169 169 182 158 146 153 99 38 43 141 148 120 134 94 193 4 245 271 302 321 303 300 284 299 298 284 293 287 3 296 265 250 255 224 226 248 222 222 254 270 282 198
198 201 191 178 188 149 99 153 134 125 111 83 98 138 152 152 150 119 279 325 255 313 323 300 286 296 281 302 283 121 329 263 279 275 336 325 276 238 202 218 240 274 263 302
203 198 183 176 178 139 103 103 228 122 156 150 128 185 208 167 221 194 234 156 227 295 309 312 298 322 327 308 250 243 240 262 280 285 278 277 148 275 213 218 223 261 292 308
206 204 176 173 161 126 106 140 161 207 130 139 197 146 188 240 139 257 120 258 283 319 293 300 308 306 300 300 300 319 192 273 289 291 263 239 296 311 282 255 276 275 277 277
199 185 166 159 156 109 120 221 193 261 123 185 214 159 159 214 276 247 246 286 325 301 314 310 296 291 283 275 273 278 285 292 299 291 219 186 233 248 246 230 263 279 318 1
193 181 174 167 158 125 78 161 148 162 205 211 189 173 238 256 273 279 287 295 286 291 308 303 285 268 258 253 250 248 235 272 255 274 175 193 154 304 351 280 77 27 19 40
191 185 184 177 170 149 104 159 109 235 251 207 181 231 252 264 260 244 272 295 304 310 301 291 291 279 262 241 230 230 225 237 284 278 170 122 158 81 42 330 93 51 359 0
187 186 192 194 189 174 131 166 143 143 303 218 251 241 247 284 295 263 256 297 312 296 283 278 268 276 290 225 182 204 189 216 234 301 200 161 110 86 354 304 177 11 358 0
190 190 203 208 204 190 165 200 169 163 284 227 208 286 349 4 297 288 317 345 311 291 287 277 281 299 266 256 157 179 201 211 233 264 285 99 6 347 312 262 33 1 10 13
198 193 204 209 207 194 181 189 194 191 242 269 246 253 252 242 246 295 330 315 19 303 291 310 5 261 313 281 75 166 197 220 219 238 262 143 355 48 8 342 15 22 31 41
193 200 196 185 193 187 177 212 193 213 251 287 282 258 258 257 266 297 303 304 306 324 315 354 311 285 343 323 152 29 74 12 311 35 48 47 34 50 24 21 46 44 69 80
200 196 198 199 206 201 197 215 185 198 284 298 255 259 265 253 251 236 259 244 20 350 325 324 298 297 344 347 8 34 68 17 32 307 42 52 41 41 44 49 65 70 84 95
200 201 202 213 214 217 212 219 216 215 277 284 305 267 275 262 237 234 231 257 296 301 294 308 282 294 336 335 321 9 351 336 337 107 107 97 61 47 57 71 78 82 85 89
193 195 207 208 204 206 221 229 224 222 252 320 305 291 286 246 247 232 234 244 265 285 300 269 277 301 335 317 282 47 6 3 349 22 0 71 53 53 67 76 74 78 84 82
198 204 205 207 207 207 221 242 249 235 219 258 272 295 256 248 234 230 229 235 243 242 245 257 268 282 313 309 358 52 30 21 2 41 76 109 104 81 69 75 75 84 87 86
200 202 208 214 199 205 206 220 129 173 210 220 258 254 208 223 226 228 209 203 215 234 252 248 260 283 270 277 0 59 45 36 66 117 69 98 29 97 78 77 80 82 81 82
200 208 200 197 213 226 234 235 248 268 204 193 247 254 241 194 206 213 194 184 211 228 247 260 266 283 253 262 112 84 61 49 51 57 76 94 99 79 67 69 82 84 82 85
192 176 188 212 222 229 252 259 249 240 181 217 218 238 219 168 221 180 192 205 234 240 232 238 264 237 238 76 118 87 46 61 77 66 75 76 73 65 59 64 72 88 89 90
182 191 206 199 192 199 185 125 161 185 212 235 248 240 225 184 183 182 215 203 242 234 210 178 231 155 104 109 102 93 58 61 93 217 67 46 51 49 50 61 73 94 102 106
193 188 158 142 135 138 170 165 191 191 223 213 226 214 194 202 189 204 210 209 243 258 168 207 210 158 126 143 119 90 70 60 54 58 51 44 84 109 104 89 90 101 114 125
181 159 135 144 177 185 182 190 199 227 231 165 195 204 212 185 217 235 197 232 202 246 147 211 202 102 131 136 128 99 72 66 68 70 77 81 91 100 108 104 104 107 106 109
131 127 151 175 162 209 218 184 205 204 171 179 160 166 187 202 217 243 256 219 238 136 215 161 53 129 141 139 133 112 98 95 93 91 98 103 107 124 112 106 104 107 111 108
180 160 149 220 177 230 199 253 147 78 117 162 173 164 186 162 179 239 248 197 262 232 229 106 129 146 137 124 120 130 110 107 107 105 108 109 112 114 113 110 109 109 108 106
205 194 209 203 96 46 81 108 119 118 168 164 173 177 189 173 221 212 280 222 226 320 54 87 125 131 140 131 126 126 123 116 109 109 111 110 111 111 111 112 112 110 105 93
171 186 170 104 195 164 175 163 146 169 174 163 188 167 201 187 232 204 231 286 338 81 86 120 133 135 137 136 132 126 124 125 122 118 116 117 114 114 115 114 111 106 92 72
180 142 123 55 27 132 132 167 159 190 163 231 216 206 133 117 214 223 272 358 58 120 120 124 140 143 142 138 136 131 127 124 122 119 118 121 121 110 90 78 97 79 338 323